West Chicago, IL

3:14 PM CST on February 14, 2016 (GMT -0600)
Du Page

Weather History for KDPA - February, 2013

Change the Weather History Date:

Sunday, February 3, 2013

  Actual Average Record
Temperature  
Mean Temperature 15 °F 25 °F  
Max Temperature 21 °F 33 °F 44 °F (2006)
Min Temperature 9 °F 17 °F -12 °F (2011)
Degree Days  
Heating Degree Days 50 40  
Month to date heating degree days 160 120  
Since 1 July heating degree days 3767 3835  
Cooling Degree Days 0 0  
Month to date cooling degree days 0 0  
Year to date cooling degree days 0 0  
Moisture  
Dew Point 11 °F    
Average Humidity 78    
Maximum Humidity 93    
Minimum Humidity 65    
Precipitation  
Precipitation 0.01 in 0.04 in 0.37 in (2006)
Month to date precipitation 0.05 0.11  
Year to date precipitation 3.05 1.42  
Sea Level Pressure  
Sea Level Pressure 30.02 in    
Wind  
Wind Speed 9 mph (West)    
Max Wind Speed 23 mph    
Max Gust Speed 28 mph    
Visibility 6 miles    
Events Snow    
T = Trace of Precipitation, MM = Missing Value Source: NWS Daily Summary

Daily Weather History Graph

Daily Weather History Graph

Search for Another Location

Airport or City:

Trip Planner

Search our weather history database for the weather conditions in past years. The results will help you decide how hot, cold, wet, or windy it might be!

Date:

Astronomy

Feb. 03, 2013 Rise Set
Actual Time 7:03 AM CST 5:11 PM CST
Civil Twilight 6:33 AM CST 5:40 PM CST
Nautical Twilight 6:00 AM CST 6:13 PM CST
Astronomical Twilight 5:27 AM CST 6:46 PM CST
Moon 12:30 AM CST (2/3) 10:47 AM CST (2/3)
Length of Visible Light 11h 06m
Length of Day
10h 07m
Waning Gibbous, 48% of the Moon is Illuminated
Feb 3
Waning Gibbous
Feb 10
New
Feb 17
First Quarter
Feb 25
Full
Mar 4
Last Quarter

Hourly Weather History & Observations

Time (CST) Temp. Windchill Dew Point Humidity Pressure Visibility Wind Dir Wind Speed Gust Speed Precip Events Conditions
12:52 AM 10.0 °F 3.6 °F 1.9 °F 70% 30.04 in 10.0 mi West 3.5 mph - N/A   Overcast
1:52 AM 10.0 °F 1.8 °F 3.9 °F 76% 30.03 in 7.0 mi SW 4.6 mph - 0.00 in Snow Light Snow
2:52 AM 10.0 °F 1.8 °F 5.0 °F 80% 30.01 in 8.0 mi WSW 4.6 mph - 0.00 in   Overcast
3:52 AM 10.0 °F 1.8 °F 6.1 °F 84% 29.99 in 7.0 mi SW 4.6 mph - 0.00 in Snow Light Snow
4:52 AM 10.9 °F 0.2 °F 7.0 °F 84% 29.98 in 7.0 mi SW 6.9 mph - 0.00 in Snow Light Snow
5:52 AM 10.9 °F 1.4 °F 8.1 °F 88% 30.01 in 6.0 mi WSW 5.8 mph - 0.00 in Snow Light Snow
6:52 AM 12.0 °F 2.7 °F 9.0 °F 88% 30.00 in 4.0 mi SW 5.8 mph - 0.00 in Snow Light Snow
7:03 AM 12.2 °F 4.3 °F 8.6 °F 85% 29.95 in 4.0 mi WSW 4.6 mph - 0.00 in Snow Light Snow
7:48 AM 12.2 °F 0.7 °F 8.6 °F 85% 29.96 in 1.8 mi SW 8.1 mph - 0.00 in Snow Light Snow
7:52 AM 12.9 °F 2.6 °F 9.0 °F 84% 30.01 in 1.5 mi SW 6.9 mph - 0.00 in Snow Light Snow
8:49 AM 14.0 °F 5.1 °F 10.4 °F 86% 29.96 in 2.0 mi West 5.8 mph - 0.00 in Snow Light Snow
8:52 AM 14.0 °F 2.0 °F 10.9 °F 88% 30.01 in 2.0 mi West 9.2 mph - 0.00 in Snow Light Snow
9:02 AM 15.8 °F 6.1 °F 10.4 °F 79% 29.97 in 2.5 mi WSW 6.9 mph - 0.00 in Snow Light Snow
9:27 AM 15.8 °F 4.2 °F 12.2 °F 86% 29.97 in 1.5 mi West 9.2 mph - 0.00 in Snow Light Snow
9:35 AM 15.8 °F 3.4 °F 12.2 °F 86% 29.97 in 1.2 mi West 10.4 mph - 0.00 in Snow Light Snow
9:52 AM 16.0 °F 3.6 °F 12.9 °F 88% 30.02 in 1.8 mi West 10.4 mph - 0.00 in Snow Light Snow
10:05 AM 17.6 °F 3.7 °F 12.2 °F 79% 29.97 in 2.0 mi West 13.8 mph - 0.00 in Snow Light Snow
10:37 AM 17.6 °F 3.2 °F 10.4 °F 73% 29.98 in 4.0 mi WNW 15.0 mph - 0.00 in Snow Light Snow
10:52 AM 18.0 °F 4.2 °F 10.9 °F 74% 30.03 in 5.0 mi NW 13.8 mph - 0.00 in   Haze
11:43 AM 19.4 °F 2.8 °F 10.4 °F 68% 30.00 in 6.0 mi NW 21.9 mph - 0.00 in   Mostly Cloudy
11:52 AM 19.0 °F 3.2 °F 10.9 °F 71% 30.04 in 5.0 mi WNW 19.6 mph 27.6 mph 0.00 in Snow Light Snow
12:52 PM 19.0 °F 4.5 °F 10.9 °F 71% 30.05 in 8.0 mi WNW 16.1 mph - 0.00 in   Mostly Cloudy
1:00 PM 19.4 °F 5.5 °F 10.4 °F 68% 30.00 in 8.0 mi WNW 15.0 mph 23.0 mph N/A   Scattered Clouds
1:09 PM 19.4 °F 4.5 °F 10.4 °F 68% 30.01 in 8.0 mi WNW 17.3 mph - N/A   Mostly Cloudy
1:41 PM 19.4 °F 6.0 °F 10.4 °F 68% 30.00 in 9.0 mi WNW 13.8 mph - N/A   Scattered Clouds
1:52 PM 19.9 °F 5.7 °F 10.9 °F 68% 30.05 in 9.0 mi West 16.1 mph - N/A   Partly Cloudy
2:31 PM 19.4 °F 5.0 °F 12.2 °F 74% 30.01 in 7.0 mi West 16.1 mph - N/A   Mostly Cloudy
2:52 PM 19.9 °F 6.2 °F 10.9 °F 68% 30.06 in 9.0 mi West 15.0 mph - N/A   Mostly Cloudy
3:04 PM 19.4 °F 6.0 °F 10.4 °F 68% 30.02 in 10.0 mi WNW 13.8 mph - N/A   Partly Cloudy
3:52 PM 19.0 °F 6.1 °F 9.0 °F 65% 30.06 in 10.0 mi West 12.7 mph - N/A   Scattered Clouds
4:52 PM 17.1 °F 5.8 °F 10.0 °F 74% 30.05 in 10.0 mi West 9.2 mph - N/A   Clear
5:52 PM 19.9 °F 8.6 °F 10.9 °F 68% 30.05 in 10.0 mi WSW 10.4 mph - N/A   Overcast
6:52 PM 19.9 °F 9.3 °F 12.0 °F 71% 30.06 in 10.0 mi West 9.2 mph - N/A   Overcast
7:52 PM 19.9 °F 11.1 °F 12.0 °F 71% 30.06 in 10.0 mi West 6.9 mph - N/A   Overcast
8:52 PM 19.9 °F 11.1 °F 12.9 °F 74% 30.07 in 10.0 mi West 6.9 mph - N/A   Overcast
9:36 PM 19.4 °F 10.4 °F 15.8 °F 86% 30.04 in 1.8 mi West 6.9 mph - 0.00 in Snow Light Snow
9:52 PM 19.9 °F 11.1 °F 16.0 °F 85% 30.08 in 1.8 mi WSW 6.9 mph - 0.00 in Snow Light Snow
10:30 PM 19.4 °F 10.4 °F 17.6 °F 93% 30.04 in 2.0 mi West 6.9 mph - 0.00 in Snow Light Snow
10:47 PM 19.4 °F 11.5 °F 17.6 °F 93% 30.03 in 1.2 mi WSW 5.8 mph - 0.00 in Snow Light Snow
10:52 PM 19.9 °F 11.1 °F 17.1 °F 89% 30.07 in 1.5 mi WSW 6.9 mph - 0.00 in Snow Light Snow
11:52 PM 19.9 °F 13.4 °F 18.0 °F 92% 30.05 in 1.8 mi WSW 4.6 mph - 0.01 in Snow Light Snow